User: anonymous   Login
Location: Unspecified
(0.0000°N, 0.0000°E)
Time: 04:30:08
(UTC+02:00)
Language:

Cosmos 1943 Rocket - Orbit

View from above orbital plane
View from above orbital plane
View from above satellite
View from above satellite

Ground track
Ground track

The orbit data is extracted from the following two-line orbital elements,

1 19120U 88039B   17146.10060823 +.00000055 +00000-0 +49136-4 0  9997
2 19120 071.0155 011.5915 0023549 225.9490 133.9696 14.19167410503256
Epoch (UTC): 26 May 2017 02:24:52
Eccentricity: 0.0023549
inclination: 71.0155°
perigee height: 811 km
apogee height: 845 km
right ascension of ascending node: 11.5915°
argument of perigee: 225.9490°
revolutions per day: 14.19167410
mean anomaly at epoch: 133.9696°
orbit number at epoch: 50325

The dashed part of the orbit path shows where the satellite is in the earth's shadow,  

DLR